Location: Newark
(13.6797°N, 8.5297°E)
Time: 03:19:25
(UTC+00:00)

Altair - Pass Details

Date: 31 January 2020
Orbit: 1502 x 1682 km, 47.2° (Epoch: 16 February)

Event Time Altitude Azimuth Distance (km) Brightness Sun altitude
Rises 07:18:16 0° 285° (WNW) 4,839 9.5 18.5°
Reaches altitude 10° 07:24:46 10° 316° (NW) 3,894 9.1 19.9°
Maximum altitude 07:27:48 12° 334° (NNW) 3,782 9.2 20.6°
Drops below altitude 10° 07:30:52 10° 352° (N) 3,922 9.4 21.3°
Sets 07:37:34 0° 23° (NNE) 4,927 10.1 22.7°
